Location: Nag� el Ma?a??a
(24.0667°N, 32.8833°E)
Time: 15:39:02
(UTC+00:00)

SL-16 R/B - Pass Details

Date: 25 September 2021
Orbit: 840 x 850 km, 71.0° (Epoch: 16 October)

Event Time Altitude Azimuth Distance (km) Brightness Sun altitude
Exits shadow 01:18:35 30° 8° (N) 1,474 3.6 -32.4°
Drops below altitude 10° 01:21:19 10° 14° (NNE) 2,460 4.9 -31.8°
Sets 01:23:47 0° 16° (NNE) 3,399 5.7 -31.2°
